Find Starlink 38176

NORAD ID: 100189 Int'l Des: 2026-175 Owner: SPXS Country: US Constellation: starlink operational

当前视图

正在加载3D地球...

About Starlink 38176

Starlink 38176 (NORAD 100189) is a starlink constellation satellite launched Aug 1, 2026 by SPXS of US. with a mass of 575.00 kg.

即将过境

Passes for default location (London). Set your location on the main map for personalized predictions.

高度历史

Loading altitude history...

两行轨道根数

1 A0189U 26175L 26221.26986968 .00217384 00000-0 10989-2 0 9990
2 A0189 97.2847 61.5520 0000695 121.5374 238.5962 15.80987984 2522
Epoch: Aug 9, 2026 • Age: 26 hours

当前状态

高度 329.7 km
远地点 / 近地点 N/A
速度 7.71 km/s
星下点 25.93°N, 25.78°W
发射日期 Aug 1, 2026
运行时间 9 days
类型 internet

技术详情

分类 Payload
质量 575.00 kg
干质量 530.00 kg
总质量 575.00 kg
长度 0.30 m
直径 4.10 m
跨度 29.00 m
形状 Box + pan
制造商 SPXS
平台类型 Starlink V2MO
阶段状态 In Orbit
所有者/国家 SPXS/US

Most Searched